Flag for United Kingdom Weather past 2 weeks in Silverstone, England, United Kingdom

Now
91 °F

Sunny.


Feels Like: 91 °F
Forecast: 61 / 74 °F
Wind: 13 mph from South

Location: Cranfield

Current Time: Jul 1, 2015 at 8:27:45 PM

Latest Report: Jul 1, 2015 at 5:50 PM


Visibility: 10 mi

Pressure: 29.80 "Hg

Humidity: 34%

Dew point: 59 °F

Location of SilverstoneLocation

Historic Weather in Silverstone — Graph

°F

Silverstone temperature yesterday

Maximum temperature yesterday: 84 °F (at 3:50 PM)
Minimum temperature yesterday: 68 °F (at 7:50 AM)
Average temperature yesterday: 77 °F

Past Weeks' High & Low Weather Summary

 TemperatureHumidityPressure
High93 °F (Jul 1, 3:50 PM)94% (Jun 20, 9:50 AM)30.24 "Hg (Jun 20, 9:50 AM)
Low52 °F (Jun 19, 7:20 AM)25% (Jun 30, 3:50 PM)29.77 "Hg (Jun 22, 11:50 AM)
Average66 °F62%30.06 "Hg
* Reported Jun 16 5:20 PM — Jul 1 5:50 PM, Silverstone, Weather by CustomWeather, © 2015

Note: Actual official high and low records may vary slightly from our data, if they occured in-between our weather recording intervals... More about our weather records

Advertising

Silverstone weather history for previous 24 hours

 ConditionsComfort  
Time TempWeatherWind HumidityBarometerVisibility
5:50 PM
Wed, Jul 1
91 °FSunny.13 mph34%29.80 "Hg10 mi
5:20 PM91 °FSunny.12 mph32%29.83 "Hg10 mi
4:50 PM91 °FSunny.13 mph34%29.83 "Hg10 mi
4:20 PM91 °FSunny.16 mph32%29.83 "Hg10 mi
3:50 PM93 °FSunny.16 mph30%29.83 "Hg10 mi
3:20 PM91 °FSunny.14 mph34%29.83 "Hg10 mi
2:50 PM90 °FSunny.15 mph36%29.83 "Hg10 mi
2:20 PM90 °FSunny.17 mph33%29.83 "Hg10 mi
1:50 PM88 °FSunny.14 mph38%29.86 "Hg10 mi
1:20 PM90 °FSunny.16 mph33%29.83 "Hg10 mi
12:50 PM91 °FSunny.18 mph34%29.83 "Hg10 mi
12:20 PM91 °FSunny.14 mph34%29.86 "Hg10 mi
11:50 AM91 °FSunny.17 mph36%29.86 "Hg10 mi
11:20 AM90 °FPassing clouds.13 mph38%29.86 "HgN/A
10:50 AM88 °FSunny.14 mph38%29.86 "Hg10 mi
10:20 AM84 °FSunny.12 mph45%29.86 "Hg10 mi
9:50 AM82 °FSunny.12 mph45%29.86 "Hg10 mi
9:20 AM81 °FSunny.10 mph51%29.86 "Hg10 mi
8:50 AM75 °FSunny.13 mph61%29.89 "Hg10 mi
8:20 AM72 °FSunny.14 mph65%29.89 "Hg10 mi
7:50 AM70 °FSunny.12 mph69%29.89 "Hg10 mi
Weather by CustomWeather, © 2015

See weather overviewHow to use our weather pages